Location: Mannheim
(49.4880°N, 8.4650°E)
Time: 20:13:14
(UTC+02:00)

ISS - Pass Details

Date: 15 May 2024
Orbit: 411 x 418 km, 51.6° (Epoch: 30 May)

Event Time Altitude Azimuth Distance (km) Brightness Sun altitude
Rises 22:28:11 0° 261° (W) 2,369 0.5 -11.3°
Reaches altitude 10° 22:30:17 10° 264° (W) 1,504 -0.5 -11.5°
Maximum altitude 22:33:39 69° 348° (NNW) 453 -3.4 -11.8°
Drops below altitude 10° 22:37:01 10° 73° (ENE) 1,501 -1.2 -12.2°
Enters shadow 22:38:59 - 75° (ENE) 2,303 -0.2 -12.4°
